Regional Weather Roundup
Issued by NWS Sioux Falls, SD

Home | Current Version | Previous Version | Text Only | Print | Product List | Glossary On
Versions: 1 2 3 4 5 6 7 8 9 10 11 12 13 14 15 16 17 18 19 20 21 22 23 24 25 26 27 28 29 30 31 32 33 34 35 36 37 38 39 40 41 42 43 44 45 46 47 48 49 50
000
ASUS43 KFSD 201502
RWRFSD

WEATHER ROUNDUP FOR SE SOUTH DAKOTA/SW MINNESOTA/NW IOWA
NATIONAL WEATHER SERVICE SIOUX FALLS SD
1000 AM CDT SAT SEP 20 2014

NOTE: "FAIR" INDICATES FEW OR NO CLOUDS BELOW 12,000 FEET WITH NO
SIGNIFICANT WEATHER AND OR OBSTRUCTIONS TO VISIBILITY.


SDZ038>040-050-052>070-201600-
SOUTHEAST SOUTH DAKOTA

CITY           SKY/WX    TMP DP  RH WIND       PRES   REMARKS
CHAMBERLAIN    SUNNY     65  55  71 W8        29.97R
HURON          SUNNY     68  55  63 W5        29.92R
MADISON        FAIR      66  63  88 W5        29.92S
MITCHELL       SUNNY     67  57  70 NW3       29.94R
SIOUX FALLS    MOSUNNY   70  59  68 NW5       29.91R
WINNER         FAIR      70  55  59 W10       30.00R
YANKTON        SUNNY     70  57  64 NW8       29.93R
$$

MNZ071-072-080-081-089-090-097-098-201600-
SOUTHWEST MINNESOTA

CITY           SKY/WX    TMP DP  RH WIND       PRES   REMARKS
FAIRMONT       PTSUNNY   68  57  68 W9        29.87R
JACKSON        PTSUNNY   68  59  73 W7        29.89S
LUVERNE        SUNNY     70  57  64 NW3       29.91R
MARSHALL       SUNNY     66  55  68 NW9       29.88R
MONTEVIDEO     SUNNY     66  61  82 NW6       29.88R
PIPESTONE      SUNNY     66  57  72 NW5       29.91S
REDWOOD FALLS  SUNNY     67  59  75 NW10      29.86R
TRACY          SUNNY     68  59  73 NW8       29.89R
WINDOM         MOSUNNY   68  59  73 W9        29.89R
WORTHINGTON    MOSUNNY   68  59  73 NW7       29.91R
$$

IAZ001>003-012>014-020>022-031-032-NEZ013-014-SDZ071-201600-
NORTHWEST IOWA

CITY           SKY/WX    TMP DP  RH WIND       PRES   REMARKS
CHEROKEE       PTSUNNY   68  65  92 W5        29.91R
DENISON        CLOUDY    70  68  94 VRB7      29.91S
ESTHERVILLE    PTSUNNY   67  61  81 NW9       29.88R
LE MARS        MOSUNNY   70  63  78 W5        29.92R
ORANGE CITY    MOSUNNY   70  59  68 NW9       29.91R
SHELDON        MOSUNNY   68  63  83 NW6       29.90R
SIOUX CITY     PTSUNNY   65  62  90 NW5       29.93S
SPENCER        PTSUNNY   70  62  76 W7        29.89R
$$

ABBREVIATIONS USED IN REMARKS
   TC - TEMPERATURE IN CELSIUS
  WCI - WIND CHILL INDEX
   HX - HEAT INDEX
  VSB - VISIBILITY



USA.gov is the U.S. government's official web portal to all federal, state and local government web resources and services.